Vorticity
nan nan nan nan nan nan nan nan nan nan nan nan nan nan nan nan nan nan nan nan nan nan nan nan nan nan nan nan nan nan nan nan nan nan nan nan nan nan nan nan nan nan nan nan nan
nan 7 7 7 8 8 8 7 8 8 9 9 8 7 7 11 15 2 16 14 13 4 2 5 3 8 4 10 10 9 12 3 10 16 6 8 6 2 1 10 7 13 15 12 nan
nan 7 7 7 7 8 8 8 9 10 10 11 9 8 7 10 18 25 13 8 6 1 1 1 4 11 5 8 3 11 16 10 5 5 13 11 6 10 12 10 11 10 5 6 nan
nan 7 6 6 7 7 8 8 10 11 12 12 10 9 11 13 2 22 13 10 10 5 5 6 11 5 10 9 6 11 3 12 11 8 4 6 8 10 15 19 21 12 7 6 nan
nan 8 7 6 7 8 8 8 11 13 14 13 10 11 13 8 12 7 6 8 8 7 7 7 8 4 8 12 4 7 9 9 4 9 6 3 8 11 12 13 12 8 8 6 nan
nan 7 8 7 7 8 8 8 11 15 15 12 9 9 11 6 15 8 8 8 5 5 6 5 6 8 11 11 10 6 7 6 8 6 11 8 4 6 9 7 6 7 6 7 nan
nan 7 8 7 7 8 8 9 14 18 14 10 9 7 8 8 5 12 13 9 6 5 3 5 7 10 8 8 15 6 5 3 6 2 10 13 6 11 7 6 6 6 7 7 nan
nan 7 7 8 8 9 9 10 16 16 10 9 8 5 12 15 4 14 14 9 7 6 5 11 6 10 10 5 10 3 2 6 4 -5 -7 12 21 9 6 5 6 4 6 7 nan
nan 8 8 8 9 9 9 13 20 12 10 9 7 7 9 13 15 12 12 9 6 7 7 5 13 9 13 7 4 5 -1 10 6 6 -1 2 7 7 6 7 6 5 5 5 nan
nan 8 8 8 9 9 14 23 18 13 10 0 6 10 20 12 15 10 11 10 7 5 8 2 8 10 9 5 4 10 5 4 7 9 -0 3 12 10 5 7 6 7 5 6 nan
nan 8 8 8 10 10 22 22 11 9 4 -1 6 11 13 16 8 8 12 11 7 4 4 8 4 10 8 4 3 5 10 2 11 12 3 5 13 8 7 4 8 9 5 7 nan
nan 8 9 8 9 20 19 -3 -1 8 16 16 6 4 8 13 7 11 6 5 9 6 6 6 6 5 3 5 5 6 10 8 8 2 3 17 4 9 7 5 8 7 8 8 nan
nan 8 8 9 24 27 5 8 5 13 15 21 22 12 10 4 7 13 6 4 9 7 7 4 8 5 7 5 10 5 7 10 4 4 8 5 3 11 8 5 6 6 8 7 nan
nan 8 6 24 21 9 17 15 7 9 19 30 13 14 12 9 11 11 7 2 8 12 5 4 16 14 7 8 10 10 13 9 2 7 10 4 9 15 6 7 6 5 6 5 nan
nan 8 15 17 14 6 5 3 10 12 16 24 11 11 16 10 11 13 7 4 3 6 9 10 11 10 10 10 3 15 16 6 10 4 9 12 11 8 7 13 8 7 5 6 nan
nan 7 18 23 13 4 3 14 15 7 9 7 14 14 12 11 12 11 6 0 5 16 9 3 9 9 6 11 11 6 7 8 10 10 16 4 10 12 17 15 8 9 8 8 nan
nan 11 16 15 6 5 17 17 10 8 4 13 12 9 5 9 16 11 7 7 7 11 8 13 13 3 6 10 9 1 4 4 14 9 8 17 8 -4 10 19 20 18 13 8 nan
nan 27 29 13 5 3 9 9 11 8 6 9 15 13 9 6 9 9 6 6 9 7 5 13 11 8 8 3 3 11 1 1 5 12 9 7 10 10 6 10 15 17 19 10 nan
nan 34 11 16 13 11 12 9 8 4 15 8 13 12 7 7 6 9 9 5 10 7 -1 10 8 12 5 6 5 4 8 2 4 11 7 9 15 11 14 4 6 13 16 16 nan
nan 16 25 17 11 9 10 7 4 6 3 11 16 17 10 7 7 10 8 9 4 5 2 4 15 15 5 7 -3 6 16 8 5 7 13 8 7 18 14 11 10 10 11 16 nan
nan 10 22 12 4 7 13 10 3 7 7 5 14 14 15 11 10 6 7 8 10 2 3 0 18 12 9 9 5 2 3 5 5 7 9 11 12 15 8 13 12 11 14 17 nan
nan 12 11 8 6 7 11 7 4 11 5 2 6 12 24 19 5 6 10 8 10 4 10 5 5 13 11 6 5 9 5 0 8 5 3 6 13 10 12 8 6 9 13 17 nan
nan 15 11 8 6 10 10 9 11 8 3 11 11 13 10 15 15 15 6 15 13 12 16 9 2 10 9 7 7 10 12 13 1 8 5 2 7 5 6 7 4 8 16 14 nan
nan 17 12 8 3 12 19 13 11 -1 9 13 5 9 17 18 16 14 8 13 11 11 7 16 14 5 10 8 9 7 5 4 8 9 8 6 11 5 4 2 7 12 7 12 nan
nan 5 13 16 17 7 15 18 10 7 15 7 10 4 13 15 19 16 13 6 3 10 4 11 10 10 6 11 10 8 13 5 7 1 2 10 6 -0 5 9 9 10 12 14 nan
nan 4 7 16 13 13 13 12 15 13 10 15 15 12 8 3 17 21 17 12 10 6 8 10 8 11 9 15 9 11 14 11 8 5 5 4 1 15 8 6 8 12 12 13 nan
nan nan nan nan nan nan nan nan nan nan nan nan nan nan nan nan nan nan nan nan nan nan nan nan nan nan nan nan nan nan nan nan nan nan nan nan nan nan nan nan nan nan nan nan nan
CAPE
0 0 0 0 0 0 0 0 1 2 3 2 2 3 2 0 0 0 0 0 0 0 188 0 15 70 415 477 117 158 136 67 110 135 364 425 587 761 828 666 652 718 473 837 803
0 0 0 1 0 0 2 3 2 2 3 2 1 1 1 0 0 0 0 0 535 395 0 0 0 1 151 60 10 31 59 18 69 175 300 507 679 885 1328 1599 979 994 793 867 835
0 0 0 1 0 0 2 3 3 3 1 1 1 2 0 0 0 0 0 0 194 240 0 0 0 9 45 9 10 41 6 3 57 149 279 319 243 326 269 1429 1080 1229 920 895 906
0 0 0 0 0 0 1 2 4 4 1 1 1 1 0 0 0 0 0 4 116 0 0 0 0 0 24 1 0 41 14 111 20 68 276 131 240 557 1358 1409 1344 977 803 859 901
0 0 1 0 0 0 1 1 2 4 1 1 1 0 0 0 0 0 0 0 0 0 0 0 0 0 0 2 0 92 91 51 42 140 52 54 482 1223 1407 1234 1115 1029 932 843 805
0 2 2 1 1 2 3 3 1 2 1 0 0 0 0 0 0 0 0 0 0 0 0 0 0 0 2 0 22 26 111 40 52 0 27 277 365 1180 1487 1214 1243 1235 1217 1129 948
2 2 1 3 1 0 1 2 3 1 0 0 0 0 0 0 0 0 0 0 0 0 0 0 0 0 0 0 1 14 53 41 51 110 11 0 118 1010 1656 1365 1442 1525 1593 1608 1520
4 3 2 3 1 1 3 3 1 1 0 0 0 0 0 0 0 0 0 0 0 0 0 0 0 0 0 0 26 25 40 104 103 54 149 9 387 893 1301 1526 1572 1689 1799 1785 1776
4 3 3 2 3 2 3 1 1 1 1 0 0 0 0 0 0 0 0 0 0 0 0 0 0 0 0 0 51 33 64 51 74 37 214 15 340 670 617 808 1176 1373 1416 1384 1438
3 3 3 2 2 1 0 0 1 0 0 0 0 0 0 0 0 0 0 0 0 0 0 0 0 0 0 0 11 38 49 76 80 68 47 39 79 650 523 309 788 957 1014 1013 1185
4 4 3 2 0 0 0 0 0 0 0 0 0 0 0 0 0 0 0 0 0 0 0 0 0 0 0 0 2 19 1 27 32 29 74 105 151 505 590 365 364 613 925 818 850
4 4 3 2 1 0 0 0 0 0 0 0 0 0 0 0 0 0 0 0 0 0 0 0 0 0 0 0 0 0 0 22 25 43 31 40 314 199 323 413 311 338 567 544 601
3 3 3 1 0 0 0 0 0 0 0 0 0 0 0 0 0 0 0 0 0 0 0 0 0 0 0 0 0 0 0 1 19 16 7 93 106 409 186 250 321 241 331 407 527
2 4 3 0 0 0 0 0 0 0 0 0 0 0 0 0 0 0 0 0 0 0 0 0 0 0 0 0 0 0 0 0 2 37 54 8 67 484 599 194 130 308 323 371 410
1 3 2 1 0 0 0 0 0 0 0 0 0 0 0 0 0 0 0 0 0 0 0 0 0 0 0 0 0 3 0 0 0 10 25 48 67 291 29 670 430 161 329 510 557
1 1 3 0 0 0 0 0 0 0 0 0 0 0 0 0 0 0 0 0 0 0 0 0 0 0 0 0 0 0 0 1 6 22 67 101 50 117 540 940 868 500 160 276 575
0 0 3 0 0 0 0 0 0 0 0 0 0 0 0 0 0 0 0 0 0 0 0 0 0 0 0 0 0 0 2 11 23 53 73 16 41 96 17 139 42 346 442 339 380
0 0 0 0 0 0 0 0 1 0 0 0 0 0 0 0 0 0 0 0 0 0 0 0 0 0 0 0 0 0 1 16 22 40 49 8 0 0 0 21 87 162 307 580 803
0 0 0 0 0 0 0 0 0 0 6 0 0 0 0 0 0 0 0 0 0 0 0 0 0 0 0 0 0 0 0 1 3 7 8 25 29 7 24 17 68 92 207 840 947
0 0 0 0 0 0 0 0 3 22 11 31 19 0 0 0 0 0 0 0 0 0 0 10 9 0 0 0 0 3 0 0 1 0 35 30 18 17 44 2 0 54 140 372 1124
0 0 0 0 0 0 0 0 0 39 0 0 4 16 0 0 0 0 0 0 0 0 0 0 3 5 0 0 0 0 1 14 27 36 51 41 46 21 6 0 3 7 25 289 938
0 0 0 0 0 0 0 0 1 46 1 0 0 14 16 0 0 0 0 0 0 0 0 0 0 1 3 0 0 2 2 9 35 50 26 31 29 2 2 5 28 15 22 162 1185
0 0 0 0 0 0 0 0 3 26 4 0 0 5 3 11 19 0 0 0 0 0 0 0 0 5 6 20 0 0 2 26 35 53 140 112 82 30 3 15 36 41 26 219 1067
0 0 0 0 0 8 53 4 51 0 4 46 0 52 45 9 17 13 2 7 1 0 6 0 0 0 2 3 25 4 1 3 15 107 114 133 104 93 71 60 33 32 42 123 737
0 0 3 3 0 15 178 151 75 131 0 0 0 2 96 86 64 55 20 73 15 3 0 0 5 0 0 0 50 25 16 9 44 36 61 78 22 52 33 5 11 0 7 56 459
0 0 0 0 36 56 32 179 116 96 67 26 21 69 97 238 306 163 184 183 80 32 6 0 11 0 7 17 5 44 53 60 48 54 46 50 82 59 2 0 0 0 0 0 58
0 0 0 0 0 1 6 72 124 24 0 9 24 85 64 230 146 132 142 221 184 175 123 144 83 94 60 68 50 70 46 57 82 108 77 107 104 67 1 0 0 0 0 2 0